Hollywood, FL

11:08 AM EDT on October 16, 2019 (GMT -0400)
North Perry

Weather History for KHWO - August, 2019

Change the Weather History Date:

Wednesday, August 7, 2019

  Actual Average (WUND) Record (WUND)
Temperature  
Mean Temperature 85 °F -  
Max Temperature 93 °F - - (-1)
Min Temperature 80 °F - - (-1)
Cooling Degree Days 20    
Growing Degree Days 35 (Base 50)    
Moisture  
Dew Point 75 °F    
Average Humidity 74    
Maximum Humidity 87    
Minimum Humidity 59    
Precipitation  
Precipitation 0.51 in - - ()
Sea Level Pressure  
Sea Level Pressure 30.03 in    
Wind  
Wind Speed 5 mph (SSE)    
Max Wind Speed 15 mph    
Max Gust Speed -    
Visibility 9 miles    
Events Rain , Thunderstorm    
Averages and records for this station are not official NWS values.
T = Trace of Precipitation, MM = Missing Value Source: NWS Daily Summary

Daily Weather History Graph

Daily Weather History Graph

Search for Another Location

Airport or City:

Astronomy

Aug. 07, 2019 Rise Set
Actual Time 6:49 AM EDT 8:03 PM EDT
Civil Twilight 6:25 AM EDT 8:27 PM EDT
Nautical Twilight 5:56 AM EDT 8:56 PM EDT
Astronomical Twilight 5:26 AM EDT 9:26 PM EDT
Moon 1:37 PM EDT (8/7) 12:27 AM EDT (8/7)
Length of Visible Light 14h 02m
Length of Day
13h 13m
Waxing Crescent, 49% of the Moon is Illuminated
Aug 7
Waxing Crescent
Aug 7
First Quarter
Aug 15
Full
Aug 23
Last Quarter
Aug 30
New

Hourly Weather History & Observations

Time (EDT) Temp. Heat Index Dew Point Humidity Pressure Visibility Wind Dir Wind Speed Gust Speed Precip Events Conditions
7:53 AM 80.1 °F 85.4 °F 75.9 °F 87% 30.03 in 9.0 mi Calm Calm - N/A   Unknown
8:53 AM 84.0 °F 92.6 °F 75.9 °F 76% 30.04 in 10.0 mi Calm Calm - N/A   Clear
9:53 AM 87.1 °F 98.8 °F 77.0 °F 72% 30.05 in 10.0 mi Variable 4.6 mph - N/A   Scattered Clouds
10:53 AM 88.0 °F 96.5 °F 73.9 °F 63% 30.06 in 10.0 mi South 5.8 mph - N/A   Partly Cloudy
11:53 AM 87.1 °F 95.4 °F 73.9 °F 65% 30.05 in 10.0 mi ESE 10.4 mph - N/A   Scattered Clouds
12:25 PM 90.0 °F 101.3 °F 75.9 °F 63% 30.04 in 10.0 mi ESE 9.2 mph - N/A Thunderstorm Partly Cloudy
12:40 PM 89.1 °F 99.1 °F 75.0 °F 63% 30.04 in 10.0 mi SE 12.7 mph - N/A   Mostly Cloudy
12:53 PM 87.1 °F 96.3 °F 75.0 °F 67% 30.05 in 10.0 mi South 15.0 mph - 0.00 in Rain , Thunderstorm Light Thunderstorms and Rain
12:58 PM 82.9 °F 90.8 °F 75.9 °F 79% 30.06 in 1.8 mi SSE 15.0 mph - 0.15 in Rain , Thunderstorm Heavy Thunderstorms and Rain
1:08 PM 81.0 °F 87.3 °F 75.9 °F 85% 30.06 in 1.0 mi ESE 3.5 mph - 0.33 in Rain , Thunderstorm Heavy Thunderstorms and Rain
1:19 PM 80.1 °F 85.4 °F 75.9 °F 87% 30.05 in 1.2 mi ENE 9.2 mph - 0.50 in Rain , Thunderstorm Thunderstorms and Rain
1:24 PM 81.0 °F 86.7 °F 75.0 °F 82% 30.05 in 4.0 mi East 8.1 mph - 0.50 in Rain , Thunderstorm Light Thunderstorms and Rain
1:32 PM 81.0 °F 87.3 °F 75.9 °F 85% 30.04 in 9.0 mi East 6.9 mph - 0.50 in Rain , Thunderstorm Light Rain
1:45 PM 84.0 °F 92.6 °F 75.9 °F 76% 30.03 in 10.0 mi ESE 6.9 mph - 0.50 in Rain , Thunderstorm Light Rain
1:53 PM 86.0 °F 96.0 °F 75.9 °F 72% 30.04 in 10.0 mi SE 6.9 mph - 0.50 in Thunderstorm Scattered Clouds
2:25 PM 84.9 °F 92.1 °F 73.9 °F 69% 30.03 in 10.0 mi SSE 6.9 mph - N/A   Clear
2:53 PM 89.1 °F 97.0 °F 73.0 °F 59% 30.02 in 10.0 mi SSE 6.9 mph - 0.00 in   Clear
3:23 PM 88.0 °F 94.7 °F 72.0 °F 59% 30.01 in 10.0 mi SSW 4.6 mph - N/A Thunderstorm Clear
3:53 PM 84.0 °F 91.9 °F 75.0 °F 74% 30.02 in 10.0 mi WSW 11.5 mph - N/A   Scattered Clouds
4:04 PM 82.9 °F 89.4 °F 73.9 °F 74% 30.02 in 10.0 mi West 8.1 mph - N/A Thunderstorm Scattered Clouds
4:19 PM 82.9 °F 89.4 °F 73.9 °F 74% 30.01 in 10.0 mi West 6.9 mph - 0.00 in Rain Light Rain
4:53 PM 81.0 °F 87.3 °F 75.9 °F 85% 30.00 in 10.0 mi WSW 3.5 mph - 0.01 in Rain Light Rain
5:53 PM 84.0 °F 91.2 °F 73.9 °F 72% 30.00 in 10.0 mi South 3.5 mph - 0.00 in   Clear
6:53 PM 84.9 °F 93.3 °F 75.0 °F 72% 30.00 in 10.0 mi Calm Calm - N/A   Clear
7:53 PM 84.9 °F 93.3 °F 75.0 °F 72% 30.01 in 10.0 mi Calm Calm - N/A   Clear
8:53 PM 82.9 °F 90.8 °F 75.9 °F 79% 30.02 in 10.0 mi NNW 3.5 mph - N/A   Clear
9:53 PM 82.0 °F 88.6 °F 75.0 °F 79% 30.02 in 10.0 mi Calm Calm - N/A   Clear
10:53 PM 82.0 °F 88.6 °F 75.0 °F 79% 30.04 in 10.0 mi Calm Calm - N/A   Clear
11:53 PM 82.0 °F 88.6 °F 75.0 °F 79% 30.03 in 10.0 mi Calm Calm - N/A   Clear